Location: The Rolnick Observatory
(41.1711°N, 73.3275°W)
Time: 11:59:26
(UTC-04:00)

Daily predictions for brighter satellites

Satellite Brightness Start Highest point End
(mag) Time Altitude Azimuth Time Altitude Azimuth Time Altitude Azimuth
SPOT 5 4.4 20:36:02 10° ESE 20:40:18 25° ENE 20:44:37 10° NNE
Meteor 1-27 Rocket 4.0 20:37:32 10° N 20:42:54 48° ENE 20:48:12 10° SSE
Cosmos 1184 Rocket 4.3 20:41:24 10° SE 20:43:53 20° E 20:46:24 10° NE
CZ-3C R/B 4.3 20:11:08 10° SW 20:47:12 26° SSW 20:55:39 10° SE
ATLAS 5 CENTAUR R/B 3.5 20:44:48 10° NW 20:50:31 43° WSW 20:56:32 10° S
Abrixas 4.5 20:49:45 10° SSE 20:51:08 12° SE 20:52:31 10° ESE
Cosmos 2154 Rocket 4.2 20:45:51 10° SSE 20:51:50 52° E 20:57:49 10° NNE
H-2A R/B 3.6 20:49:20 10° S 20:52:56 50° W 20:56:35 10° NNW
Cosmos 1242 Rocket 4.2 20:51:44 10° NNE 20:54:32 20° ENE 20:57:10 11° ESE
H-2A R/B 2.6 20:53:00 10° SE 20:56:59 39° ENE 21:00:55 10° N
Cosmos 2184 Rocket 4.3 20:51:51 10° SSW 20:57:59 71° W 21:04:11 10° N
YAOGAN 11 4.2 20:55:09 10° SSE 20:59:41 89° ENE 21:04:17 10° NNW
Cosmos 1782 3.1 20:55:42 10° NNW 20:59:44 74° W 21:03:45 10° S
YAOGAN 6 4.3 20:58:54 11° ESE 21:01:08 17° ENE 21:03:31 10° NNE
Cosmos 1174 3.2 20:58:26 10° NW 21:01:38 73° WSW 21:04:32 10° SSE
Cosmos 676 Rocket 4.0 20:56:47 10° NNW 21:02:01 84° ENE 21:07:16 10° SSE
Cosmos 1408 2.9 20:59:24 10° SSE 21:02:53 44° E 21:06:23 10° NNE
Cosmos 1954 Rocket 4.0 21:00:04 10° NNW 21:05:16 70° ENE 21:10:30 10° SSE
Okean 3 3.8 21:05:23 10° N 21:09:33 49° E 21:13:22 12° SSE
Atlas Centaur 2 3.3 21:09:49 10° SSW 21:10:47 11° SSW 21:11:43 10° S
COS B Rocket 3.3 21:07:14 10° N 21:11:08 54° E 21:14:34 10° SSE
CZ-4 DEB 3.9 21:11:08 10° S 21:14:10 43° W 21:17:13 10° NNW
Cosmos 1833 Rocket 3.9 21:10:54 10° N 21:15:39 27° NE 21:19:34 13° ESE
Cosmos 1844 Rocket 3.8 21:14:01 10° SW 21:19:27 48° WNW 21:24:55 10° NNE
Cosmos 1825 2.1 21:16:00 10° S 21:19:48 79° E 21:23:38 10° N
Cosmos 1939 Rocket 2.8 21:16:06 10° SSE 21:19:59 89° WSW 21:23:57 10° NNW
Cosmos 2278 Rocket 2.2 21:15:49 10° SSW 21:21:30 88° ESE 21:27:14 10° NNE
Cosmos 1741 Rocket 4.4 21:16:44 10° N 21:21:47 47° ENE 21:25:30 17° SE
GPS 2-05 Rocket1 3.8 21:18:49 10° WSW 21:22:13 34° S 21:24:06 20° SE
Okean 2 Rocket 3.0 21:28:13 10° S 21:32:36 69° E 21:36:59 10° NNE
Meteor 2-13 Rocket 4.4 21:29:16 10° S 21:35:21 68° E 21:41:28 10° NNE
Envisat 3.2 21:32:00 10° S 21:37:03 74° WSW 21:42:09 10° NNW
SEDSat Delta rocket 4.4 21:35:45 10° SW 21:38:48 19° S 21:39:01 19° SSE
PSLV R/B 3.1 21:38:39 33° SE 21:39:45 60° ENE 21:42:41 10° N
Cosmos 1782 Rocket 3.7 21:35:57 10° S 21:40:25 80° W 21:44:56 10° N
Cosmos 2082 Rocket 2.5 21:35:59 10° NNW 21:41:35 52° ENE 21:44:56 23° SE
Cosmos 614 Rocket 4.0 21:36:54 10° NNW 21:41:58 64° ENE 21:45:00 24° SE
CZ-4 SHROUD 3.2 21:41:47 33° SE 21:42:57 63° ENE 21:46:00 10° N
Nadezhda 3 Rocket 4.5 21:38:08 10° NNW 21:44:25 63° W 21:50:40 10° S
Intercosmos 25 2.8 21:43:01 19° S 21:45:18 68° E 21:48:26 10° NNE
OAO 3 Rocket 3.9 21:41:56 10° SW 21:46:24 34° SSE 21:48:02 27° SE
Cosmos 2218 Rocket 4.2 21:41:56 14° SSE 21:47:17 56° E 21:53:31 10° NNE
ERS-1 Rocket 4.3 21:44:22 10° SSW 21:49:01 38° W 21:53:43 10° NNW
Cosmos 1420 Rocket 4.1 21:44:40 10° SSW 21:49:55 76° WNW 21:55:09 10° NNE
APEX 3.6 21:46:37 10° SSW 21:50:33 81° WNW 21:55:46 10° NNE
Cosmos 1812 4.2 21:48:32 10° NNE 21:51:36 22° ENE 21:52:04 21° E
COSMOS 2487 3.9 21:48:52 10° NW 21:52:10 34° WSW 21:54:41 15° SSW
DNEPR-1 R/B 3.9 21:47:48 10° NW 21:53:06 69° WSW 21:55:33 27° SSE
Meteor 1-14 Rocket 4.2 21:48:55 13° S 21:54:01 69° E 21:59:35 10° NNE
Cosmos 1975 Rocket 3.5 21:50:57 10° NNW 21:55:14 59° W 21:58:29 17° S
Cosmos 1140 Rocket 3.8 21:51:27 10° NNW 21:56:31 61° WSW 22:00:07 19° S
USA 234 4.3 21:52:26 10° ENE 21:56:42 22° ESE 21:56:42 22° ESE
Cosmos 1959 Rocket 4.4 21:53:09 16° S 21:58:06 68° E 22:04:10 10° NNE
Cosmos 2297 3.7 21:53:17 10° SSW 21:58:59 89° ESE 22:04:46 10° NNE
Cosmos 1727 Rocket 4.2 21:54:57 10° N 22:01:00 53° E 22:04:02 29° SE
Terra 3.0 22:01:13 24° E 22:02:35 28° ENE 22:06:36 10° N
NOAA 11 4.2 22:01:15 28° SSE 22:04:09 69° ENE 22:09:39 10° N
AVUM R/B 3.9 22:01:18 10° NNW 22:04:42 44° ENE 22:05:10 41° E
CZ-4B R/B 3.3 22:01:34 10° NNE 22:06:29 70° ESE 22:09:18 25° S
ISS -0.9 22:05:10 10° W 22:07:53 24° NNW 22:10:37 10° NE
Cosmos 1536 Rocket 3.7 22:03:45 10° N 22:08:11 58° E 22:09:31 40° SE
MetOp-B 4.4 22:04:33 20° S 22:08:12 67° WSW 22:13:34 10° NNW
H-2A R/B 2.6 22:11:12 32° ESE 22:13:06 44° ENE 22:18:05 10° N
NOSS 8 (F) 4.3 22:11:48 22° SSW 22:13:57 84° ESE 22:17:37 10° NE
BREEZE-M DEB (TANK) 4.2 22:13:47 10° NW 22:15:21 17° N 22:17:37 10° NE
SPOT 5 4.0 22:14:01 16° SSW 22:18:03 44° W 22:23:10 10° NNW
Lacrosse 5 rocket 3.5 22:21:56 13° ENE 22:21:56 13° ENE 22:22:22 10° ENE
SL-8 Rocket 4.3 22:14:15 10° SSW 22:20:30 68° W 22:26:43 10° N
IGS 5A 4.2 22:25:17 37° E 22:25:35 38° ENE 22:29:26 10° N
USA 245 3.8 22:25:48 39° SW 22:26:41 50° W 22:30:48 10° NNW
Abrixas 4.4 22:23:42 10° WSW 22:24:56 22° WSW 22:24:56 22° WSW
Cosmos 2369 Rocket 3.7 22:29:38 19° E 22:29:38 19° E 22:32:26 10° NE
SPOT 1/Viking Rocket 3.9 22:26:13 30° S 22:28:43 62° WSW 22:33:55 10° NNW
ARGOS 3.3 22:27:48 33° S 22:30:14 70° WSW 22:35:36 10° NNW
Gbstr 26 Del rocket 3.8 22:25:17 10° NW 22:30:15 48° NNE 22:31:42 34° ENE
Lacrosse 5 2.2 22:31:52 44° ESE 22:31:52 44° ESE 22:36:07 10° NE
H-2A R/B 4.4 22:30:17 10° SW 22:33:09 17° W 22:35:59 10° NW
YAOGAN 6 4.3 22:33:23 22° SW 22:34:31 26° W 22:37:33 10° NW
CZ-4C R/B 3.2 22:38:45 78° SE 22:38:59 85° ENE 22:43:09 10° NNW
Cosmos 2151 Rocket 4.3 22:36:41 24° SW 22:39:08 51° W 22:43:34 10° N
USA 229 DEB 4.0 22:40:30 10° NW 22:47:30 63° WSW 22:50:15 38° S
USA 229 4.0 22:40:36 10° NW 22:47:36 63° WSW 22:50:21 39° S
Cosmos 1400 Rocket 4.3 22:49:31 27° ENE 22:49:31 27° ENE 22:51:56 10° NNE
Cosmos 1300 Rocket 3.4 22:49:12 78° SSE 22:49:29 85° E 22:53:57 10° N
ASTEX 1 3.4 22:46:26 10° NNE 22:51:20 59° E 22:51:33 58° ESE
Iridium 4 Rocket 4.4 22:46:14 10° NNE 22:51:45 39° E 22:52:22 38° E
Meteor 1-20 Rocket 4.3 22:50:15 35° SSW 22:52:40 73° W 22:58:11 10° N
Okean 1 Rocket 2.9 22:56:16 85° SE 22:56:21 87° E 23:00:50 10° N
Cosmos 1943 Rocket 4.3 22:59:12 11° ENE 22:59:12 11° ENE 22:59:48 10° ENE
Cosmos 1833 Rocket 3.4 22:54:25 10° NW 22:59:45 45° WSW 23:01:16 37° SSW
NOSS 3-1 (A) 4.3 22:58:25 10° NNW 23:05:54 62° NE 23:09:02 39° ESE
Cosmos 1331 Rocket 4.5 23:05:38 31° SW 23:07:56 56° WNW 23:13:02 10° NNE
Cosmos 1503 Rocket 4.3 23:05:50 10° N 23:10:57 51° ENE 23:11:14 50° ENE
Cosmos 1535 Rocket 4.4 23:12:04 59° SSE 23:13:18 75° E 23:19:42 10° N
Okean 1-7 Rocket 3.7 23:08:50 10° NNW 23:13:10 69° W 23:13:10 69° W
Okean 1 4.3 23:10:54 10° NNW 23:14:37 42° W 23:14:37 42° W
DMSP B5D2-2 4.4 23:14:12 10° N 23:19:22 63° WNW 23:20:37 47° SW
Cosmos 2082 Rocket 3.9 23:20:59 10° NW 23:25:13 22° W 23:26:48 19° WSW
Meteor 2-14 Rocket 4.3 23:25:57 66° ESE 23:26:25 69° E 23:32:32 10° NNE
ATLAS 2AS CENTAUR R/B 4.0 23:19:14 10° NNW 23:26:44 38° NE 23:30:49 24° E
Meteor 2-15 4.3 23:23:02 10° N 23:29:09 69° E 23:29:39 66° ESE
NOSS 3-1 (C) 4.0 23:27:24 10° NW 23:35:03 79° WSW 23:37:00 56° SSE
Genesis I 4.5 23:37:08 41° NNW 23:37:08 41° NNW 23:40:29 10° NNE
Meteor 2-4 Rocket 3.5 23:31:42 10° N 23:37:12 81° E 23:37:12 81° E
Terra 3.1 23:40:06 31° W 23:40:13 31° W 23:44:27 10° NNW
USA 234 3.1 23:34:21 10° NE 23:40:56 89° SSE 23:43:56 36° SW
BREEZE-M TANK 3.2 23:36:22 10° WNW 23:42:07 56° NW 23:42:07 56° NW
ISS -0.1 23:43:31 10° NNW 23:45:11 13° N 23:46:43 10° NNE
Cosmos 1354 Rocket 4.1 23:40:06 10° NNW 23:45:03 73° WNW 23:45:03 73° WNW
H-2A R/B 3.7 23:51:51 23° WSW 23:52:38 24° W 23:56:53 10° NW
Cosmos 1315 Rocket 4.4 23:55:13 33° N 23:55:13 33° N 23:57:31 10° N
